[[{"header":{"parameterUnit":"m.s-1","parameterCategory":1,"la1":30.2991,"la2":30.254,"lo1":-89.0895,"lo2":-89.0444,"dy":0.0017,"dx":0.0017,"nx":28,"ny":28,"refTime":"2023-11-17T03:00:00:Z","depth":0,"parameterNumber":2,"parameterNumberName":"U-component_of_WINDS"},"data":[0,0,0,0,0,0,0,0,0,0,0,0,0,0,0,0,0,0,0,0,0,0,0,0,0,0,0,0,0,0,0,0,0,0,0,0,0,0,0,0,0,0,0,0,0,0,0,0,0,0,0,0,0,0,0,0,0,0,-1.5274,-1.5275,0,-1.5347,-1.5348,-1.5349,-1.5305,-1.5303,-1.5301,-1.5299,-1.5376,-1.5379,-1.5383,0,0,0,0,0,0,0,0,0,0,0,0,0,-1.5099,-1.5103,-1.5274,-1.5275,-1.5276,-1.5347,-1.5348,-1.5349,-1.5305,-1.5303,-1.53,-1.5298,-1.5374,-1.5379,-1.5384,0,0,0,0,0,0,0,0,0,0,0,0,0,-1.5174,-1.5104,-1.5274,-1.5263,-1.5262,-1.5347,-1.5348,-1.5349,-1.5306,-1.5303,-1.53,-1.5297,-1.5373,-1.5378,-1.5384,-1.5485,0,0,-1.5403,-1.5405,0,0,0,0,0,0,0,0,-1.517,-1.5181,-1.5263,-1.5264,-1.5263,-1.5314,-1.5314,-1.5395,-1.5307,-1.5289,-1.5299,-1.5295,-1.5358,-1.5365,-1.5385,-1.5488,-1.5492,-1.5403,-1.5407,-1.541,-1.5411,0,0,0,0,0,0,0,-1.5165,-1.5177,-1.5303,-1.5265,-1.5265,-1.5255,-1.5262,-1.5329,-1.534,-1.5291,-1.5288,-1.5297,-1.5357,-1.538,-1.5387,-1.5493,-1.5403,-1.5408,-1.5412,-1.5415,-1.5684,-1.5687,0,0,0,0,0,0,-1.516,-1.5173,-1.5301,-1.5305,-1.5208,-1.526,-1.5268,-1.5301,-1.534,-1.5342,-1.5299,-1.5295,-1.5371,-1.538,-1.5389,-1.5512,-1.5409,-1.5415,-1.5419,-1.568,-1.5685,-1.5689,0,0,0,0,0,0,-1.5157,-1.5172,-1.5298,-1.5238,-1.5254,-1.5267,-1.5304,-1.5304,-1.5327,-1.5346,-1.5348,-1.5321,-1.5369,-1.5381,-1.5462,-1.5513,-1.5418,-1.5423,-1.5676,-1.5682,-1.5687,-1.5755,0,0,0,0,0,0,-1.5152,-1.5171,-1.5209,-1.524,-1.5257,-1.5369,-1.5307,-1.5308,-1.5337,-1.5331,-1.5366,-1.5369,-1.5367,-1.5453,-1.5468,-1.552,-1.5428,-1.5672,-1.5679,-1.5685,-1.5749,-1.5762,-1.5774,0,0,0,0,0,-1.5146,-1.5225,-1.5211,-1.5226,-1.5304,-1.5371,-1.5382,-1.5377,-1.5341,-1.538,-1.5392,-1.5368,-1.5505,-1.5462,-1.5478,-1.5533,-1.5669,-1.5677,-1.5685,-1.5743,-1.576,-1.5774,0,0,0,0,0,0,-1.52,-1.5229,-1.5213,-1.5305,-1.5336,-1.5364,-1.5412,-1.5395,-1.5437,-1.543,-1.5423,-1.5432,-1.5517,-1.5532,-1.5484,-1.5633,-1.5581,-1.5593,-1.562,-1.5636,-1.5649,-1.5644,-1.5433,0,0,0,0,0,-1.5222,-1.5274,-1.5296,-1.5375,-1.5391,-1.5399,-1.5428,-1.5422,-1.5455,-1.5468,-1.5486,-1.5519,-1.557,-1.5603,-1.5651,-1.575,-1.5758,-1.5796,-1.5808,-1.5819,-1.583,-1.5886,-1.5903,-1.5715,-1.5715,-1.5715,0,0,-1.527,-1.5292,-1.5325,-1.5386,-1.541,-1.5465,-1.5411,-1.547,-1.5511,-1.5477,-1.5555,-1.557,-1.5606,-1.5697,-1.5738,-1.5713,-1.5883,-1.5829,-1.5837,-1.5843,-1.5896,-1.5914,-1.593,-1.572,-1.5719,-1.5718,0,0,-1.5384,-1.5405,-1.5474,-1.5499,-1.5535,-1.554,-1.5556,-1.5587,-1.5596,-1.5674,-1.565,-1.5699,-1.5785,-1.5813,-1.5838,-1.5964,-1.5945,-1.598,-1.6048,-1.6102,-1.6117,-1.6131,-1.6178,-1.6195,-1.599,-1.599,-1.599,0,-1.5439,-1.552,-1.5512,-1.5574,-1.5603,-1.5574,-1.5644,-1.5669,-1.5719,-1.574,-1.571,-1.582,-1.5842,-1.594,-1.5971,-1.5992,-1.6012,-1.5977,-1.6116,-1.6129,-1.6141,-1.6186,-1.6204,-1.5995,-1.5994,-1.5994,-1.5993,0,-1.5586,-1.5643,-1.5694,-1.5744,-1.5778,-1.5844,-1.5847,-1.5883,-1.5874,-1.5882,-1.5963,-1.5989,-1.6042,-1.6064,-1.6055,-1.6162,-1.6146,-1.6116,-1.6064,-1.6163,-1.6206,-1.6223,-1.6001,-1.5999,-1.5998,-1.5997,0,0,-1.5739,-1.5783,-1.5802,-1.5825,-1.5863,-1.5907,-1.5972,-1.6024,-1.6056,-1.6091,-1.6147,-1.6222,-1.6195,-1.6224,-1.6218,-1.6266,-1.6368,-1.6231,-1.6232,-1.6258,-1.649,-1.6514,-1.6534,-1.6354,-1.6357,-1.6359,-1.6487,0,-1.5858,-1.5972,-1.5967,-1.6074,-1.6127,-1.61,-1.6157,-1.6188,-1.6197,-1.6244,-1.6255,-1.6309,-1.6268,-1.6286,-1.6332,-1.6346,-1.6415,-1.6336,-1.6408,-1.6411,-1.6403,-1.6555,-1.6581,-1.67,-1.6504,-1.6506,-1.6508,0,-1.6012,-1.6053,-1.6166,-1.6197,-1.622,-1.6271,-1.6319,-1.6364,-1.6398,-1.6402,-1.6435,-1.6422,-1.6489,-1.6434,-1.6528,-1.6475,-1.6504,-1.6516,-1.652,-1.6529,-1.6468,-1.6571,-1.6738,-1.6757,-1.6534,-1.6532,-1.653,0,-1.6115,-1.6198,-1.6277,-1.6297,-1.6335,-1.6373,-1.639,-1.6421,-1.6453,-1.6495,-1.6516,-1.6565,-1.6593,-1.6632,-1.6633,-1.6592,-1.673,-1.6674,-1.6737,-1.6737,-1.6769,-1.6767,-1.6946,-1.6783,-1.6783,-1.6782,-1.6782,0,-1.6251,-1.6321,-1.6324,-1.6373,-1.6452,-1.6445,-1.6524,-1.6538,-1.6566,-1.6618,-1.6597,-1.6646,-1.6643,-1.6694,-1.6695,-1.6775,-1.6787,-1.6793,-1.6793,-1.6797,-1.6797,-1.6818,-1.6811,-1.6787,-1.6786,-1.6785,-1.6784,0,-1.638,-1.6385,-1.6469,-1.6498,-1.6507,-1.6565,-1.659,-1.6637,-1.6644,-1.6711,-1.6726,-1.6738,-1.6797,-1.6801,-1.6868,-1.6869,-1.6967,-1.6956,-1.6956,-1.6955,-1.7019,-1.7014,-1.7219,-1.7247,-1.7064,-1.7065,-1.7067,0,-1.6467,-1.6521,-1.6556,-1.659,-1.661,-1.6663,-1.6696,-1.6691,-1.6727,-1.677,-1.6813,-1.6869,-1.6914,-1.7009,-1.7025,-1.7077,-1.7069,-1.7138,-1.7077,-1.708,-1.7074,-1.7072,-1.7078,-1.715,-1.7152,-1.7154,-1.7155,0,-1.6623,-1.6623,-1.667,-1.6719,-1.6759,-1.6797,-1.6833,-1.6862,-1.6862,-1.6903,-1.6962,-1.6997,-1.7066,-1.7124,-1.7175,-1.7194,-1.7177,-1.7174,-1.7192,-1.7197,-1.7196,-1.7201,-1.6991,-1.717,-1.7168,-1.7167,-1.7166,-1.7166,-1.6736,-1.6783,-1.6816,-1.687,-1.6897,-1.6931,-1.6977,-1.6991,-1.704,-1.7096,-1.709,-1.7157,-1.7191,-1.7258,-1.7281,-1.7334,-1.7312,-1.7337,-1.7344,-1.7351,-1.7359,-1.7185,-1.7343,-1.7343,-1.7343,-1.7342,-1.7342,0,-1.6893,-1.6912,-1.6962,-1.7013,-1.7056,-1.7034,-1.7073,-1.7111,-1.717,-1.7203,-1.7247,-1.7317,-1.7372,-1.7393,-1.7447,-1.7486,-1.7479,-1.7501,-1.7499,-1.7505,-1.7375,-1.7355,-1.7505,-1.7505,-1.7505,-1.7505,-1.7505,-1.7505,-1.698,-1.7059,-1.7063,-1.7157,-1.7176,-1.7241,-1.7265,-1.7298,-1.7324,-1.7403,-1.7449,-1.7461,-1.749,-1.7546,-1.7597,-1.7601,-1.7624,-1.7649,-1.7651,-1.753,-1.7513,-1.7498,-1.748,-1.7654,-1.7654,-1.7777,-1.7778,-1.7779]},{"header":{"parameterUnit":"m.s-1","parameterCategory":1,"la1":30.2991,"la2":30.254,"lo1":-89.0895,"lo2":-89.0444,"dy":0.0017,"dx":0.0017,"nx":28,"ny":28,"refTime":"2023-11-17T03:00:00:Z","depth":0,"parameterNumber":3,"parameterNumberName":"V-component_of_WINDS"},"data":[0,0,0,0,0,0,0,0,0,0,0,0,0,0,0,0,0,0,0,0,0,0,0,0,0,0,0,0,0,0,0,0,0,0,0,0,0,0,0,0,0,0,0,0,0,0,0,0,0,0,0,0,0,0,0,0,0,0,-2.0931,-2.0932,0,-2.0936,-2.0936,-2.0936,-2.0911,-2.0911,-2.091,-2.0909,-2.0913,-2.0914,-2.0914,0,0,0,0,0,0,0,0,0,0,0,0,0,-2.0901,-2.0902,-2.0931,-2.0932,-2.0932,-2.0936,-2.0936,-2.0936,-2.0912,-2.0911,-2.091,-2.0909,-2.0913,-2.0913,-2.0914,0,0,0,0,0,0,0,0,0,0,0,0,0,-2.0911,-2.0902,-2.0931,-2.092,-2.0919,-2.0936,-2.0936,-2.0936,-2.0912,-2.0911,-2.091,-2.0909,-2.0912,-2.0913,-2.0914,-2.0942,0,0,-2.0918,-2.0918,0,0,0,0,0,0,0,0,-2.091,-2.0912,-2.0922,-2.0921,-2.092,-2.0922,-2.0926,-2.0938,-2.0912,-2.0915,-2.0909,-2.0908,-2.0917,-2.0917,-2.092,-2.0942,-2.0942,-2.0918,-2.0919,-2.0919,-2.0919,0,0,0,0,0,0,0,-2.091,-2.0912,-2.0933,-2.0922,-2.0921,-2.0914,-2.0915,-2.0928,-2.0921,-2.0914,-2.0912,-2.0913,-2.0916,-2.0919,-2.092,-2.0942,-2.0918,-2.0919,-2.092,-2.092,-2.0987,-2.0988,0,0,0,0,0,0,-2.0911,-2.0911,-2.0933,-2.0933,-2.0912,-2.0916,-2.0916,-2.0922,-2.0921,-2.092,-2.0914,-2.0912,-2.0918,-2.0919,-2.092,-2.0952,-2.0919,-2.092,-2.0921,-2.0986,-2.0987,-2.0988,0,0,0,0,0,0,-2.091,-2.0913,-2.0933,-2.0922,-2.0924,-2.0917,-2.0925,-2.0923,-2.0926,-2.0921,-2.092,-2.0919,-2.0917,-2.0919,-2.0937,-2.0952,-2.0921,-2.0922,-2.0985,-2.0986,-2.0988,-2.1017,0,0,0,0,0,0,-2.0909,-2.0913,-2.0923,-2.0922,-2.0925,-2.095,-2.0926,-2.0924,-2.0928,-2.0926,-2.0925,-2.0924,-2.0917,-2.0935,-2.0938,-2.0953,-2.0922,-2.0983,-2.0985,-2.0987,-2.1015,-2.1019,-2.1023,0,0,0,0,0,-2.0908,-2.0931,-2.0924,-2.0927,-2.0938,-2.0951,-2.0952,-2.0943,-2.093,-2.094,-2.0937,-2.0924,-2.095,-2.0937,-2.094,-2.0956,-2.0982,-2.0985,-2.0987,-2.1013,-2.1018,-2.1023,0,0,0,0,0,0,-2.0934,-2.0931,-2.0923,-2.0946,-2.0949,-2.0946,-2.0959,-2.0949,-2.0956,-2.0953,-2.0941,-2.0941,-2.0961,-2.096,-2.0946,-2.0982,-2.0964,-2.0967,-2.0982,-2.0988,-2.0992,-2.0992,-2.0923,0,0,0,0,0,-2.0942,-2.0953,-2.095,-2.0971,-2.0972,-2.0966,-2.0971,-2.0964,-2.0966,-2.0967,-2.0965,-2.0967,-2.0976,-2.0982,-2.099,-2.1015,-2.1014,-2.1027,-2.1031,-2.1035,-2.1038,-2.1051,-2.1056,-2.0997,-2.0997,-2.0997,0,0,-2.0959,-2.0959,-2.0967,-2.0976,-2.0977,-2.0988,-2.0967,-2.098,-2.0988,-2.0969,-2.0986,-2.0985,-2.0986,-2.1008,-2.1018,-2.1008,-2.1054,-2.1038,-2.1041,-2.1042,-2.1054,-2.1059,-2.1064,-2.0998,-2.0998,-2.0998,0,0,-2.0996,-2.0998,-2.1015,-2.1017,-2.1019,-2.1015,-2.1019,-2.1018,-2.1017,-2.1034,-2.102,-2.1029,-2.1045,-2.1047,-2.1049,-2.1088,-2.1076,-2.1091,-2.1114,-2.1127,-2.1131,-2.1136,-2.1149,-2.1154,-2.1094,-2.1094,-2.1094,0,-2.1017,-2.1034,-2.1025,-2.1039,-2.1043,-2.1027,-2.1045,-2.1047,-2.1051,-2.1055,-2.1044,-2.1063,-2.1063,-2.1085,-2.1094,-2.1097,-2.1102,-2.1091,-2.1132,-2.1136,-2.1139,-2.1152,-2.1157,-2.1095,-2.1095,-2.1095,-2.1095,0,-2.106,-2.1072,-2.1085,-2.1091,-2.1097,-2.1112,-2.1105,-2.1112,-2.1105,-2.1101,-2.1119,-2.1119,-2.1126,-2.1131,-2.1124,-2.1152,-2.1146,-2.1134,-2.1115,-2.1147,-2.1158,-2.1163,-2.1098,-2.1097,-2.1097,-2.1096,0,0,-2.1112,-2.1113,-2.1118,-2.112,-2.1122,-2.1131,-2.1146,-2.1154,-2.116,-2.1164,-2.1176,-2.1189,-2.1178,-2.1182,-2.1174,-2.1186,-2.1216,-2.1172,-2.1172,-2.118,-2.1247,-2.1255,-2.1261,-2.1209,-2.121,-2.121,-2.1246,0,-2.1148,-2.1174,-2.1166,-2.1192,-2.1203,-2.1188,-2.1201,-2.1203,-2.1201,-2.1209,-2.1206,-2.1216,-2.1201,-2.1203,-2.1213,-2.121,-2.1229,-2.1207,-2.1219,-2.122,-2.1219,-2.1267,-2.1277,-2.1311,-2.1251,-2.1252,-2.1252,0,-2.1193,-2.12,-2.1227,-2.1227,-2.1231,-2.1243,-2.1249,-2.1258,-2.126,-2.1258,-2.1262,-2.1253,-2.1267,-2.1248,-2.1268,-2.1253,-2.1258,-2.1257,-2.1258,-2.1258,-2.1238,-2.1269,-2.1321,-2.1326,-2.1259,-2.1259,-2.1258,0,-2.1229,-2.1244,-2.1262,-2.1264,-2.1265,-2.1274,-2.1275,-2.1276,-2.1281,-2.1287,-2.129,-2.1297,-2.1301,-2.1307,-2.1299,-2.1287,-2.132,-2.1301,-2.1317,-2.1318,-2.1324,-2.1324,-2.1378,-2.1328,-2.1328,-2.1328,-2.1328,0,-2.1269,-2.1286,-2.1278,-2.1289,-2.1307,-2.1298,-2.1317,-2.1316,-2.1317,-2.1328,-2.1316,-2.1325,-2.1315,-2.1324,-2.1319,-2.1336,-2.1338,-2.1335,-2.1334,-2.1336,-2.1337,-2.1339,-2.1336,-2.133,-2.1329,-2.1329,-2.1329,0,-2.1311,-2.1306,-2.1325,-2.1325,-2.1325,-2.1339,-2.1338,-2.1348,-2.1345,-2.1358,-2.1361,-2.1355,-2.1365,-2.1359,-2.1369,-2.1365,-2.1387,-2.1382,-2.1386,-2.1385,-2.1402,-2.14,-2.1459,-2.1466,-2.1412,-2.1412,-2.1413,0,-2.1337,-2.135,-2.1351,-2.1357,-2.1359,-2.1369,-2.1375,-2.1367,-2.1373,-2.1377,-2.1386,-2.1395,-2.1402,-2.1419,-2.1415,-2.1423,-2.1418,-2.1438,-2.1419,-2.1421,-2.1418,-2.1417,-2.1418,-2.1442,-2.1442,-2.1443,-2.1443,0,-2.1384,-2.1381,-2.1389,-2.1397,-2.1404,-2.141,-2.1414,-2.142,-2.1412,-2.1419,-2.143,-2.1435,-2.1445,-2.1454,-2.1461,-2.1461,-2.1451,-2.1449,-2.1454,-2.1456,-2.1458,-2.1457,-2.1396,-2.1448,-2.1447,-2.1447,-2.1447,-2.1447,-2.1418,-2.1429,-2.1431,-2.1441,-2.1444,-2.1449,-2.1458,-2.1457,-2.1465,-2.1473,-2.1468,-2.148,-2.1482,-2.149,-2.1492,-2.1501,-2.1493,-2.1499,-2.15,-2.1502,-2.1504,-2.1457,-2.1502,-2.1502,-2.1502,-2.1502,-2.1501,0,-2.1464,-2.1465,-2.1474,-2.1481,-2.1489,-2.1479,-2.1484,-2.1491,-2.1502,-2.1505,-2.1512,-2.1524,-2.1533,-2.1531,-2.1539,-2.1547,-2.1542,-2.1549,-2.1548,-2.1548,-2.1511,-2.1506,-2.1552,-2.1552,-2.1552,-2.1552,-2.1552,-2.1552,-2.1488,-2.1506,-2.1503,-2.1522,-2.1523,-2.1535,-2.1539,-2.1543,-2.1545,-2.1559,-2.1567,-2.1566,-2.1567,-2.1575,-2.1582,-2.1581,-2.1585,-2.1593,-2.159,-2.1556,-2.1551,-2.1546,-2.1541,-2.1594,-2.1594,-2.1627,-2.1627,-2.1627]}]]